Regional Weather Roundup
Issued by NWS

Home | Current Version | Previous Version | Graphics & Text | Print | Product List | Glossary On
Versions: 1 2 3 4 5 6 7 8 9 10 11 12 13 14 15 16 17 18 19 20 21 22 23 24 25 26 27 28 29 30 31 32 33 34 35 36 37 38 39 40 41 42 43 44 45 46 47 48 49 50
000
ASUS43 KDTX 240701
RWRMI
MICHIGAN HOURLY REGIONAL WEATHER ROUNDUP
NATIONAL WEATHER SERVICE DETROIT/PONTIAC MI
200 AM EST WED JAN 24 2018

NOTE: "FAIR" INDICATES FEW OR NO CLOUDS BELOW 12,000 FEET WITH NO
SIGNIFICANT WEATHER AND/OR OBSTRUCTION TO VISIBILITY.

MIZ047>049-052>055-059>063-066>070-074>076-081>083-240800-
SOUTHEAST LOWER MICHIGAN

CITY           SKY/WX    TMP DP  RH WIND       PRES   REMARKS
ADRIAN         CLOUDY    28  20  71 N10       30.08R WCI  19
ALMA           CLOUDY    25  18  76 NW16      30.08R WCI  12
ANN ARBOR      CLOUDY    28  19  69 NW14G23   30.05R WCI  17
BAD AXE        CLOUDY    23  18  80 N14G20    30.03R WCI  10
CARO           CLOUDY    25  19  79 W13G18    30.04R WCI  14
DETROIT CITY   CLOUDY    28  20  71 NW9       30.04R WCI  19
DETROIT        CLOUDY    29  20  69 NW16      30.06R WCI  17
FLINT          CLOUDY    26  19  74 NW10      30.05R WCI  16
GROSSE ILE     CLOUDY    30  22  71 NW8       30.04R WCI  23
HILLSDALE      CLOUDY    28  19  69 NW13      30.06R WCI  18
HOWELL         CLOUDY    27  21  79 NW10      30.05R WCI  17

CITY           SKY/WX    TMP DP  RH WIND       PRES   REMARKS
JACKSON        CLOUDY    27  19  72 NW9       30.06R WCI  18
LAMBERTVILLE   CLOUDY    30  21  69 NW7G17    30.08R WCI  23
LANSING        CLOUDY    26  20  77 NW9       30.07R WCI  17
LAPEER         CLOUDY    26  20  79 NW9G20    30.03R WCI  17
MT. CLEMENS    CLOUDY    28  24  85 NW14      30.02R WCI  17
PONTIAC        CLOUDY    26  20  77 NW12      30.02R WCI  16
PORT HOPE        N/A     23  18  81 NW14G21   30.02R WCI  11
PORT HURON     CLOUDY    27  19  74 NW7       30.03R WCI  19
TRI CITIES     CLOUDY    26  20  77 NW14      30.06R WCI  14
MIDLAND        CLOUDY    26  18  74 NW7       30.06R WCI  18
TROY           CLOUDY    29  22  74 NW10      30.06R WCI  20
SAGINAW HB     CLOUDY    27  19  74 NW16      30.06R WCI  14
$$
MIZ043>046-050>051-056>058-064>065-071>073-077>080-240800-
SOUTHWEST LOWER MICHIGAN

CITY           SKY/WX    TMP DP  RH WIND       PRES   REMARKS
BATTLE CREEK   CLOUDY    27  20  75 N10       30.09R WCI  17
BENTON HARBOR  CLOUDY    31  22  69 VRB6      30.13R WCI  25
BIG RAPIDS     CLOUDY    22  14  72 NW10G17   30.07R WCI  11
COLDWATER      CLOUDY    29  22  75 NW8G17    30.09R WCI  21
FREMONT        CLOUDY    24  13  64 N10       30.10S WCI  13
HOLLAND        CLOUDY    30  20  66 N9        30.11R WCI  22
GRAND RAPIDS   CLOUDY    27  18  69 NW14      30.09R WCI  16
IONIA          CLOUDY    27  19  72 W14       30.07S WCI  16
KALAMAZOO      CLOUDY    29  21  72 NW9       30.10R WCI  20
LUDINGTON      CLOUDY    23  17  77 N10G16    30.12R WCI  12
MARSHALL       CLOUDY    27  19  72 NW8       30.08R WCI  19
MOUNT PLEASANT CLOUDY    25  16  69 NW8G16    30.06S WCI  16
MUSKEGON       CLOUDY    27  17  66 N10       30.13R WCI  17
SOUTH HAVEN    CLOUDY    31  23  72 NW8       30.12S WCI  24
$$
MIZ016>042-240800-
NORTHERN LOWER MICHIGAN

CITY           SKY/WX    TMP DP  RH WIND       PRES   REMARKS
ALPENA         LGT SNOW  15  11  83 NW18G25   30.07R FOG     WCI  -2
BEAVER ISLAND  CLOUDY    19  14  82 NW3       30.13R
BELLAIRE       CLOUDY    20  18  89 N5        30.12R WCI  14
CADILLAC       CLOUDY    21  15  79 NW10      30.03R WCI  10
CHARLEVOIX     CLOUDY    20  17  86 N3        30.14R
FRANKFORT      CLOUDY    25  18  73 N6        30.12S WCI  18
GAYLORD        FLURRIES  14  14 100 NW9       30.03R WCI   2
GRAYLING       CLOUDY    19  14  82 NW13G22   30.04R WCI   5
HARBOR SPRINGS LGT SNOW  15  11  85 CALM      30.11R
HOUGHTON LAKE  CLOUDY    20  15  81 NW10      30.03R WCI   9
MANISTEE       CLOUDY    23  18  81 NW10      30.11S WCI  12
OSCODA         CLOUDY    20  15  80 N12       30.04R WCI   8
PELLSTON       CLOUDY    14  10  84 N8        30.11R WCI   3
ROGERS CITY    LGT SNOW  14  10  86 NW3       30.10R
TRAVERSE CITY  CLOUDY    25  17  72 N16       30.10R WCI  12
$$
MIZ007>008-015-240800-
EASTERN UPPER MICHIGAN

CITY           SKY/WX    TMP DP  RH WIND       PRES   REMARKS
KINROSS        FAIR       5   1  83 N8        30.10R WCI  -8
MACKINAC ISLAN LGT SNOW  12   9  87 N8        30.11R WCI   1
NEWBERRY       FLURRIES  14  13  96 N8        30.10R WCI   3
S. S. MARIE    FAIR       7   1  76 NW7       30.10R WCI  -5
MUNISING         N/A     20  16  84 N15       30.15R WCI   6
$$
MIZ004>006-011>014-085-240800-
CENTRAL UPPER MICHIGAN

CITY           SKY/WX    TMP DP  RH WIND       PRES   REMARKS
ESCANABA       FLURRIES  17  11  77 NW6       30.16R WCI   9
SAWYER-GWINN   FLURRIES  16  12  86 NW10      30.12R WCI   3
$$
MIZ001>003-009>011-084-240800-
WESTERN UPPER MICHIGAN

CITY           SKY/WX    TMP DP  RH WIND       PRES   REMARKS
IRON MOUNTAIN  FAIR      11   6  81 NW7       30.14R WCI   0
HOUGHTON       CLOUDY    16   9  74 CALM      30.16R
COPPER HARBOR    N/A     19  13  77 E8        30.19R WCI   9
IRONWOOD       CLOUDY     0  -2  91 CALM      30.16R
$$

ABBREVIATIONS USED IN REMARKS
   TC - TEMPERATURE IN CELSIUS
  WCI - WIND CHILL INDEX
   HX - HEAT INDEX
  VSB - VISIBILITY




USA.gov is the U.S. government's official web portal to all federal, state and local government web resources and services.